STARLINK-11154 [DTC]

Last updated on Fri Oct 04 2024 00:02:04 GMT+0000 (Coordinated Universal Time)

1 61059U 24164K 24277.58334491 .00013527 00000+0 86552-4 0 9994 2 61059 53.1617 5.4400 0000964 92.1958 182.3573 15.76717809 4466
UTC large
Height (km)
Speed (km/s)
/
Latitude / Longitude
Inclination (degrees)
Orbital Period (minutes)
Azimuth
Elevation
Range (km)
Doppler Factor

Next 0 passes for location: London (51.5072 / 0.1276)

Sorry there are no passes over London.